Volver al catálogo

STARLINK-35983

ActivoComunicacionesVLEO
NORAD 66902·PAYLOAD·🇺🇸 United States

Lanzado Dec 4, 2025 desde Vandenberg Space Force Base

Loading…

Próximos Pases (próximas 24 horas)

TLE

ActualizadoSource: CelesTrak SupGP

Época: Sep 15, 2026, 03:41 UTC

1 66902C 25283AA  26258.15395833 -.00059426  00000+0 -17561-2 0  2580
2 66902  53.1581 220.6263 0001339  88.8794 187.8320 15.34414734    15

Sigue STARLINK-35983 en tiempo real con AllMySat

Download on the App Store